Wind_Speed
34 38 40 45 40 33 33 32 34 33 31 30 30 29 30 30 31 30 29 27 28 31 34 34 34 34 31 29 26 23 23 25 24 25 25 26 25 21 22 23 23 23 22
35 40 43 43 35 32 34 35 32 31 29 29 29 30 31 32 33 31 31 26 29 29 33 31 34 35 36 30 28 27 23 25 26 27 27 27 26 25 22 22 23 24 24
36 37 37 35 32 31 30 29 30 30 30 30 31 34 33 32 34 35 34 35 36 37 39 39 40 39 39 33 29 27 25 26 28 30 30 29 28 26 24 23 24 24 24
35 36 34 31 28 27 27 27 28 29 31 33 33 36 38 38 39 40 39 39 38 39 39 39 39 42 43 39 34 31 26 27 29 30 32 31 31 29 26 25 25 24 24
35 35 33 32 32 32 31 31 32 32 33 35 37 39 41 42 43 43 42 42 41 39 39 39 39 41 42 42 41 37 30 29 31 32 33 33 33 32 30 27 27 25 26
36 37 36 37 38 38 36 34 33 33 34 35 37 38 40 40 42 43 44 44 45 45 44 43 44 44 43 42 41 44 37 32 32 34 34 34 34 34 33 31 29 28 27
32 32 33 33 34 34 34 34 34 34 34 34 36 38 39 40 40 41 42 43 44 46 48 49 49 48 45 43 41 45 45 38 34 35 37 36 35 35 34 33 31 30 28
29 31 32 33 32 32 34 35 33 35 36 37 36 34 35 37 39 40 41 43 43 44 45 47 49 49 48 44 43 44 45 44 40 35 37 39 38 37 36 36 34 33 31
33 34 33 34 33 33 32 34 35 36 35 33 33 35 37 39 41 42 42 41 41 43 43 44 46 48 45 43 43 43 44 45 41 40 36 39 40 39 37 38 37 35 33
36 34 33 33 31 31 34 34 34 32 32 33 35 37 39 41 42 42 41 42 41 38 38 39 42 45 48 47 42 38 40 43 41 40 37 38 40 40 40 39 38 37 35
37 34 34 31 32 34 33 31 29 31 32 35 37 39 41 43 42 41 41 41 39 37 39 41 43 43 44 46 47 42 38 39 41 39 39 38 41 41 41 41 39 38 37
34 32 32 32 34 33 31 29 29 31 33 35 38 40 42 42 42 40 39 39 38 39 40 40 42 42 42 43 45 48 45 42 40 40 42 38 40 42 42 41 40 39 38
30 30 32 32 31 30 29 30 31 32 34 37 39 41 40 38 37 36 36 36 37 37 38 38 41 41 40 39 40 43 45 45 43 41 41 41 39 42 42 42 42 40 39
30 31 33 31 29 30 29 30 31 33 35 38 40 41 38 35 34 32 34 35 33 32 33 33 37 37 38 35 35 41 43 45 45 43 43 42 41 42 43 44 43 42 40
30 32 32 31 31 30 30 30 31 33 36 38 38 35 33 32 33 32 32 32 33 30 30 30 32 36 37 40 39 38 40 42 44 47 47 45 44 42 44 43 43 43 41
30 32 31 32 31 30 30 31 33 34 36 35 33 31 30 30 29 29 31 33 35 33 32 31 33 35 41 43 41 37 35 41 42 45 48 48 48 46 45 45 43 43 43
30 31 32 32 32 32 32 33 34 35 35 31 27 28 28 28 29 31 29 30 31 32 34 32 35 35 36 43 41 40 39 38 40 41 46 48 49 48 46 45 45 44 43
29 30 30 31 32 32 33 34 36 36 33 29 30 30 30 31 31 31 30 30 31 28 30 31 32 35 34 39 43 43 42 42 42 42 42 45 47 47 48 46 46 46 47
30 30 31 31 32 32 32 33 35 34 31 32 34 35 35 36 34 32 28 26 28 29 28 30 31 32 32 33 40 43 43 43 43 44 40 40 42 44 45 46 44 45 46
32 32 32 32 33 31 32 33 32 31 32 34 33 33 33 33 32 31 31 30 29 29 29 29 30 32 31 32 33 34 37 43 44 43 41 43 43 42 43 43 44 44 44
30 31 30 31 31 32 33 31 29 30 32 33 33 32 32 31 30 30 31 31 29 29 31 32 32 33 35 36 37 36 37 39 41 46 47 45 46 48 47 46 46 46 46
31 32 32 32 32 32 31 29 29 30 31 33 34 34 33 32 31 31 31 32 33 33 32 33 35 38 38 40 42 42 42 42 42 43 46 47 52 55 55 53 52 52 51
33 35 33 32 32 32 30 28 30 32 32 34 34 34 34 34 34 35 35 36 37 38 39 40 40 39 40 42 45 47 47 47 48 49 49 49 51 53 54 55 55 56 55
33 35 31 29 32 32 30 31 33 34 35 35 36 35 35 38 40 40 41 42 43 45 46 46 47 46 46 46 47 49 51 52 53 53 55 58 58 57 57 56 55 52 53
32 35 31 28 29 32 31 33 34 36 36 36 37 36 38 42 44 45 46 48 49 50 48 48 48 49 50 51 52 52 54 55 56 58 57 57 59 62 64 61 60 58 55
28 32 25 27 31 33 34 34 35 36 35 37 37 40 43 45 46 48 51 52 52 51 52 52 52 51 52 53 54 55 56 58 60 62 63 64 64 61 63 62 65 64 62
Wind_Direction
280 282 294 305 303 292 284 283 286 282 278 278 277 277 276 275 278 279 282 283 284 283 286 284 285 285 284 282 282 275 263 262 261 256 254 253 255 248 243 243 243 244 243
291 293 298 299 294 283 276 280 281 278 276 272 273 274 277 277 278 281 281 274 280 286 282 281 284 287 285 281 279 277 266 258 258 255 251 252 254 253 244 241 243 242 243
299 294 292 289 285 281 279 277 273 270 272 275 277 281 278 279 280 281 280 278 275 271 274 275 284 286 285 281 274 276 272 261 255 255 251 246 248 251 250 244 240 241 241
300 301 295 289 282 275 274 269 269 268 269 272 274 277 279 281 282 282 282 282 280 279 278 275 278 277 283 281 273 269 273 263 256 257 252 250 245 245 244 244 241 240 242
301 298 293 288 286 284 281 278 274 276 276 274 272 273 277 279 279 280 279 277 275 271 272 274 274 274 276 280 278 270 264 265 256 255 254 250 247 243 241 239 239 239 238
298 297 296 293 290 287 287 285 284 282 280 278 278 277 278 279 279 279 276 274 271 269 267 267 269 271 273 275 278 275 267 258 261 254 254 250 248 247 243 240 238 240 239
295 294 293 289 287 288 288 287 286 284 284 282 281 281 281 280 279 280 279 276 273 269 268 266 267 269 270 272 273 276 274 264 256 258 255 252 248 246 246 243 239 239 241
301 298 294 289 287 286 287 286 286 287 286 288 288 287 286 286 286 283 280 278 276 274 269 267 266 266 268 267 268 269 274 269 262 257 257 254 250 246 246 244 243 239 237
305 301 294 290 287 285 287 287 289 289 290 290 291 291 289 288 288 285 283 278 277 274 270 269 266 264 265 265 264 265 266 269 266 264 254 254 252 250 246 245 244 243 240
305 298 293 290 287 288 290 290 290 290 292 292 292 291 290 290 287 283 279 276 276 272 270 270 270 267 263 263 262 262 260 262 263 260 255 250 250 251 248 245 244 243 243
304 298 295 292 293 294 293 292 292 292 293 293 294 295 296 294 290 285 279 276 270 267 266 270 269 270 267 262 260 259 258 258 258 256 254 247 246 247 249 249 244 243 242
300 293 292 294 295 294 293 292 291 293 296 299 301 301 299 296 291 284 280 275 268 267 269 270 270 267 269 264 259 256 254 253 254 254 253 247 243 244 246 247 248 243 243
291 291 293 294 294 293 293 294 296 299 302 304 306 304 301 295 290 283 279 277 272 271 272 274 273 268 267 259 256 255 252 251 251 251 253 252 244 243 244 245 245 247 243
291 295 296 297 294 292 292 294 297 301 305 310 310 309 307 301 295 288 284 279 276 274 273 277 276 267 263 256 260 254 249 248 248 249 249 249 250 244 243 244 245 244 245
298 298 298 295 292 291 291 295 300 306 311 314 313 312 311 306 303 296 286 280 278 274 273 279 279 264 259 257 263 262 251 248 246 246 249 248 249 249 246 245 245 245 244
297 295 293 289 288 289 293 299 305 310 313 315 315 314 314 311 309 303 294 288 281 274 273 276 277 269 261 261 260 261 256 251 247 247 247 246 248 250 246 245 243 244 245
294 289 289 290 292 294 297 302 306 311 315 317 316 313 310 309 309 306 299 288 282 279 277 274 274 273 263 260 260 261 258 256 251 251 246 249 249 247 246 244 245 245 243
292 292 292 291 294 297 300 305 309 313 316 315 311 311 309 309 309 311 300 292 287 280 276 276 271 270 270 260 259 259 259 259 259 253 252 249 248 248 249 247 242 243 244
296 295 293 294 294 296 302 307 310 312 311 309 310 309 307 306 306 309 308 302 293 287 280 276 275 272 271 268 261 257 257 256 254 254 252 251 251 249 248 248 248 244 243
295 292 291 291 294 300 303 304 308 306 304 305 306 305 304 303 303 304 304 303 298 295 289 282 278 273 270 268 269 267 264 261 259 255 251 249 248 249 248 247 247 245 241
292 289 289 291 295 299 301 305 303 298 297 300 304 305 303 303 303 303 303 297 295 293 290 287 283 277 276 276 274 271 264 264 266 262 259 255 252 251 250 249 247 247 245
287 289 289 290 294 296 299 301 296 295 300 302 304 304 303 301 300 299 300 301 301 298 289 285 284 283 279 276 275 273 271 269 262 259 258 257 256 256 254 254 251 249 246
281 287 285 290 291 297 300 301 297 297 299 300 300 301 303 305 303 299 299 298 298 296 294 290 284 279 277 276 277 275 273 269 268 266 262 256 253 253 253 253 250 249 249
270 277 283 291 295 299 303 304 297 300 303 303 301 302 304 306 306 302 300 300 298 297 295 292 288 284 280 275 274 275 275 274 270 265 263 263 261 255 251 251 251 249 250
270 274 285 291 299 301 304 300 298 300 302 302 301 301 305 304 301 299 300 300 300 300 298 295 292 287 283 279 275 273 272 272 271 269 265 261 258 259 257 252 248 246 246
267 277 285 299 303 303 300 296 297 300 305 303 302 304 305 304 302 301 302 301 301 299 296 294 292 291 287 284 279 275 272 271 270 267 264 263 261 255 256 253 252 247 243
Height
5849 5847 5845 5843 5841 5839 5837 5835 5833 5833 5832 5831 5830 5828 5828 5828 5828 5827 5828 5827 5826 5826 5825 5824 5825 5826 5827 5828 5829 5829 5829 5828 5829 5830 5831 5831 5832 5832 5833 5834 5836 5837 5838
5845 5842 5839 5838 5836 5834 5833 5831 5828 5827 5826 5826 5825 5824 5823 5823 5822 5822 5822 5823 5821 5819 5819 5818 5818 5818 5821 5823 5824 5824 5824 5824 5824 5824 5826 5826 5826 5827 5828 5830 5831 5832 5834
5838 5836 5834 5832 5830 5829 5827 5826 5825 5823 5822 5820 5820 5818 5817 5817 5817 5816 5816 5816 5816 5815 5814 5814 5812 5812 5813 5818 5818 5819 5819 5820 5819 5819 5820 5821 5821 5822 5824 5825 5826 5828 5829
5832 5830 5827 5826 5825 5823 5822 5821 5821 5820 5819 5818 5816 5814 5812 5812 5810 5809 5808 5808 5808 5808 5808 5807 5807 5806 5806 5809 5812 5814 5814 5815 5814 5815 5815 5816 5817 5817 5818 5820 5822 5823 5825
5827 5824 5822 5820 5819 5818 5817 5816 5815 5815 5814 5812 5810 5809 5808 5807 5805 5803 5802 5801 5800 5801 5801 5800 5801 5800 5800 5801 5803 5806 5809 5809 5809 5809 5809 5810 5811 5812 5813 5815 5817 5819 5820
5821 5820 5818 5816 5815 5813 5812 5810 5809 5808 5807 5805 5804 5802 5800 5799 5798 5796 5794 5794 5793 5792 5793 5793 5793 5793 5794 5795 5796 5797 5801 5803 5803 5803 5803 5804 5805 5806 5807 5809 5811 5813 5815
5819 5816 5814 5812 5810 5808 5807 5805 5804 5802 5800 5798 5797 5795 5794 5792 5790 5789 5787 5786 5785 5784 5783 5784 5785 5785 5786 5788 5790 5789 5791 5795 5797 5797 5796 5797 5799 5800 5801 5803 5805 5807 5811
5814 5812 5809 5806 5804 5803 5801 5800 5798 5796 5794 5792 5790 5787 5785 5784 5783 5781 5779 5778 5776 5775 5774 5774 5775 5776 5778 5780 5782 5784 5783 5784 5788 5790 5790 5790 5791 5793 5795 5797 5799 5801 5805
5808 5806 5802 5800 5799 5797 5795 5794 5791 5789 5786 5784 5782 5780 5778 5776 5774 5772 5770 5769 5767 5766 5765 5765 5765 5766 5768 5771 5773 5775 5777 5775 5779 5780 5783 5783 5784 5785 5788 5790 5792 5794 5797
5802 5799 5796 5794 5793 5791 5789 5787 5784 5782 5780 5778 5775 5773 5770 5768 5765 5763 5761 5759 5758 5757 5757 5756 5755 5756 5758 5762 5764 5766 5768 5769 5770 5771 5774 5775 5776 5777 5779 5782 5785 5787 5789
5795 5792 5790 5788 5787 5785 5782 5780 5777 5775 5773 5771 5768 5764 5761 5758 5755 5753 5751 5749 5749 5748 5748 5748 5747 5746 5748 5750 5753 5756 5759 5760 5761 5763 5764 5767 5768 5770 5772 5774 5777 5780 5782
5789 5786 5784 5782 5780 5778 5776 5774 5771 5768 5766 5763 5760 5756 5752 5748 5745 5743 5741 5739 5739 5739 5738 5738 5737 5737 5738 5740 5743 5745 5748 5751 5753 5754 5756 5759 5761 5763 5765 5766 5769 5772 5775
5782 5780 5778 5777 5774 5772 5769 5767 5765 5761 5758 5755 5752 5748 5742 5738 5736 5734 5733 5731 5730 5729 5729 5728 5727 5727 5729 5730 5732 5734 5736 5739 5743 5745 5747 5750 5753 5754 5756 5759 5761 5764 5767
5776 5775 5772 5770 5768 5766 5763 5761 5759 5755 5752 5748 5744 5739 5734 5730 5728 5726 5724 5722 5721 5720 5720 5719 5717 5717 5719 5722 5723 5724 5726 5728 5732 5735 5738 5741 5744 5746 5748 5750 5753 5755 5758
5770 5768 5766 5764 5762 5760 5757 5755 5752 5749 5745 5742 5737 5732 5727 5724 5721 5719 5717 5714 5713 5711 5710 5710 5709 5709 5710 5712 5714 5715 5716 5718 5721 5724 5727 5730 5733 5737 5740 5742 5744 5746 5750
5764 5762 5760 5758 5756 5754 5751 5748 5745 5743 5739 5734 5731 5727 5723 5719 5716 5712 5709 5707 5705 5703 5701 5701 5701 5701 5701 5703 5704 5705 5706 5709 5711 5714 5716 5719 5723 5726 5730 5732 5735 5738 5741
5759 5757 5754 5751 5748 5746 5744 5742 5739 5737 5732 5728 5725 5721 5717 5714 5710 5707 5704 5700 5698 5696 5694 5693 5692 5693 5692 5692 5695 5695 5697 5699 5702 5705 5706 5709 5712 5715 5719 5723 5726 5730 5732
5753 5750 5747 5745 5742 5740 5738 5735 5732 5728 5724 5721 5717 5714 5710 5708 5704 5700 5697 5694 5691 5689 5686 5685 5685 5685 5685 5683 5685 5686 5687 5690 5692 5694 5697 5699 5701 5705 5708 5712 5716 5720 5723
5747 5744 5741 5738 5736 5734 5731 5728 5724 5721 5717 5714 5710 5706 5703 5699 5696 5693 5691 5688 5684 5682 5681 5679 5678 5677 5677 5676 5675 5675 5677 5679 5681 5683 5687 5689 5691 5694 5697 5701 5705 5709 5713
5740 5737 5735 5733 5730 5728 5725 5723 5719 5715 5712 5709 5705 5700 5697 5694 5690 5687 5684 5681 5678 5676 5674 5672 5671 5670 5670 5669 5667 5667 5667 5668 5669 5671 5675 5678 5680 5683 5686 5690 5693 5697 5701
5734 5731 5729 5727 5724 5722 5719 5715 5712 5709 5706 5702 5698 5695 5691 5687 5684 5681 5678 5675 5672 5669 5666 5664 5662 5662 5661 5659 5658 5659 5658 5658 5658 5660 5664 5666 5669 5672 5675 5678 5681 5685 5690
5728 5726 5723 5720 5718 5716 5712 5708 5705 5701 5698 5695 5692 5688 5684 5681 5678 5674 5671 5668 5665 5662 5660 5657 5654 5651 5650 5649 5647 5647 5647 5649 5649 5650 5650 5652 5656 5659 5663 5666 5669 5672 5677
5721 5718 5716 5714 5712 5709 5706 5701 5698 5695 5690 5688 5685 5681 5677 5673 5669 5666 5663 5660 5657 5654 5651 5648 5645 5643 5640 5638 5634 5633 5633 5634 5635 5636 5637 5639 5642 5644 5647 5650 5654 5659 5664
5712 5711 5708 5706 5704 5702 5698 5692 5689 5685 5681 5678 5676 5672 5668 5664 5660 5657 5654 5650 5646 5643 5639 5636 5632 5630 5628 5626 5623 5620 5617 5617 5617 5620 5622 5622 5624 5628 5632 5636 5640 5644 5649
5706 5703 5702 5699 5696 5694 5688 5685 5682 5678 5674 5670 5667 5664 5660 5656 5652 5647 5643 5638 5634 5629 5625 5621 5617 5614 5612 5610 5608 5606 5603 5602 5600 5600 5602 5605 5607 5608 5612 5618 5624 5629 5633
5695 5696 5693 5692 5688 5685 5682 5679 5676 5671 5665 5662 5659 5655 5651 5646 5641 5636 5631 5626 5620 5615 5611 5606 5602 5597 5593 5591 5589 5588 5587 5585 5583 5581 5582 5584 5587 5593 5594 5599 5603 5610 5617